Temp
95 94 95 93 91 91 90 90 89 89 87 84 85 85 85 85 86 89 90 89 92 92 94 94 93 90 91 90 91 90 89 91 91
95 95 95 94 93 92 91 90 90 89 87 85 86 87 86 85 86 86 90 90 89 93 92 95 93 92 90 91 91 90 88 91 89
95 97 96 96 94 93 92 93 92 90 89 86 87 88 88 88 87 87 88 89 88 89 92 90 92 90 90 90 90 90 88 91 90
97 96 96 96 96 96 95 94 93 91 90 88 88 89 89 89 89 89 88 88 88 88 89 90 88 89 89 90 90 90 88 88 90
98 99 99 98 98 97 95 94 94 93 92 91 90 91 89 88 89 89 89 87 88 88 87 89 88 89 88 89 90 90 88 88 91
96 97 99 99 100 97 96 95 93 94 94 94 94 91 90 90 89 89 89 88 88 88 87 87 90 89 88 88 90 89 89 89 89
95 95 95 97 97 97 96 94 93 94 95 97 96 94 92 90 89 90 90 89 88 88 88 87 88 89 89 89 90 90 90 90 89
88 89 93 94 95 95 94 93 93 92 94 95 97 94 92 91 90 90 90 89 88 88 88 88 88 88 89 89 91 94 90 90 90
84 87 88 91 94 94 94 93 92 92 92 94 95 93 92 91 88 88 88 88 87 87 87 87 87 88 88 88 93 79 73 83 90
81 82 84 86 89 93 95 95 94 92 92 94 92 90 90 90 88 86 86 87 86 86 86 87 86 87 88 88 89 72 70 72 90
77 79 81 83 87 89 92 99 100 95 94 91 90 89 88 88 87 86 86 86 86 85 86 86 86 86 87 87 89 69 67 69 86
75 77 79 82 86 88 88 91 96 95 93 91 89 88 87 88 88 86 86 85 85 86 86 86 86 87 86 86 87 67 65 69 86
74 77 78 80 83 86 88 88 94 96 92 90 88 88 88 88 88 87 86 86 85 86 86 87 90 89 88 81 87 68 63 69 88
72 75 77 79 84 87 88 91 92 94 91 90 90 90 90 89 88 87 87 86 86 86 86 88 86 87 88 88 85 85 61 59 85
67 68 74 75 81 87 93 94 92 92 87 91 90 90 89 88 87 89 89 86 85 86 85 84 85 84 87 91 88 69 62 59 62
64 66 68 70 72 76 87 91 92 87 87 89 88 88 87 86 86 86 89 85 84 86 85 88 86 88 88 91 95 91 63 58 58
61 61 62 65 69 69 71 78 84 88 88 88 87 86 85 86 85 85 88 90 89 89 90 88 91 91 92 94 95 95 96 86 75
58 59 61 61 62 65 68 71 73 77 84 86 86 86 87 87 89 86 87 89 90 92 93 87 93 94 95 94 94 95 83 84 94
57 57 60 60 61 61 63 67 70 71 74 83 86 86 88 89 91 89 91 90 86 51 54 51 52 53 68 95 69 60 57 57 56
58 59 59 60 60 61 62 63 65 69 72 76 81 79 82 85 85 89 88 86 87 85 70 49 47 49 50 51 54 52 51 48 48
MSLP
1000.14 1001.24 1002.40 1003.52 1004.71 1005.92 1007.06 1008.10 1009.24 1010.27 1011.19 1012.22 1013.02 1013.83 1014.63 1015.36 1016.00 1016.24 1016.63 1016.97 1016.76 1017.08 1017.10 1017.32 1017.61 1018.40 1018.62 1018.92 1019.12 1019.50 1019.82 1019.92 1019.98
998.81 999.84 1000.88 1002.02 1003.35 1004.60 1005.77 1006.88 1007.94 1008.98 1010.10 1011.20 1011.94 1012.70 1013.67 1014.44 1015.14 1015.66 1015.70 1016.15 1016.61 1016.72 1016.92 1016.91 1017.34 1017.78 1018.29 1018.39 1018.68 1019.00 1019.41 1019.52 1019.67
997.92 998.66 999.79 1000.91 1002.20 1003.43 1004.58 1005.69 1006.88 1008.30 1009.25 1010.06 1010.80 1011.70 1012.56 1013.29 1014.00 1014.77 1015.38 1015.72 1016.14 1016.30 1016.38 1016.88 1016.97 1017.55 1017.84 1018.03 1018.15 1018.48 1018.96 1019.03 1019.39
997.02 997.93 998.86 999.85 1000.78 1002.05 1003.28 1004.57 1005.78 1006.87 1008.08 1009.00 1009.73 1010.48 1011.42 1012.18 1012.91 1013.70 1014.56 1015.08 1015.54 1015.93 1016.27 1016.45 1016.89 1017.15 1017.42 1017.55 1017.76 1018.15 1018.57 1018.82 1018.81
996.34 996.82 997.65 998.89 999.66 1000.98 1002.11 1003.28 1004.32 1005.35 1006.53 1007.54 1008.43 1009.22 1010.25 1011.11 1011.98 1012.74 1013.41 1014.14 1014.70 1015.26 1015.73 1016.04 1016.34 1016.62 1016.95 1017.09 1017.22 1017.52 1017.96 1018.26 1018.24
996.04 996.47 996.86 997.88 998.76 999.80 1000.95 1002.11 1003.08 1003.94 1005.09 1005.95 1006.98 1008.20 1009.12 1009.91 1010.74 1011.62 1012.29 1012.99 1013.81 1014.46 1015.02 1015.37 1015.64 1015.97 1016.28 1016.52 1016.68 1016.96 1017.30 1017.62 1017.82
995.96 996.33 996.95 997.55 998.16 998.86 999.98 1001.02 1002.02 1002.84 1003.74 1004.66 1005.62 1006.87 1007.97 1008.73 1009.39 1010.18 1011.10 1011.96 1012.81 1013.48 1014.09 1014.53 1014.92 1015.22 1015.56 1015.85 1016.12 1016.38 1016.67 1016.96 1017.22
997.56 997.55 997.46 997.53 997.96 998.53 999.33 1000.22 1001.12 1002.27 1003.08 1003.85 1004.50 1005.53 1006.52 1007.46 1008.40 1009.26 1010.16 1010.98 1011.83 1012.56 1013.14 1013.60 1014.06 1014.48 1014.82 1015.16 1015.38 1015.51 1015.92 1016.23 1016.45
998.62 998.32 998.36 998.26 998.19 998.42 998.86 999.50 1000.17 1001.23 1002.15 1002.73 1003.69 1004.38 1005.26 1006.34 1007.53 1008.31 1009.05 1009.98 1010.82 1011.61 1012.14 1012.67 1013.20 1013.54 1013.91 1014.26 1014.43 1014.47 1015.02 1015.52 1015.69
999.73 999.70 999.47 999.24 998.94 998.52 998.41 998.80 999.44 1000.14 1000.95 1002.06 1002.91 1003.69 1004.68 1005.48 1006.53 1007.46 1008.10 1008.87 1009.72 1010.46 1011.09 1011.67 1012.19 1012.64 1013.02 1013.30 1013.69 1013.90 1014.33 1014.87 1015.26
1000.60 1000.37 1000.14 999.93 999.48 999.08 998.70 998.20 998.30 999.71 1000.61 1001.45 1002.19 1003.14 1004.16 1004.95 1005.60 1006.54 1007.46 1008.14 1008.67 1009.43 1010.14 1010.65 1011.11 1011.63 1012.07 1012.48 1012.70 1013.16 1013.67 1014.23 1014.76
1001.51 1001.14 1000.67 1000.08 999.60 999.11 998.78 998.37 997.86 998.47 999.78 1000.70 1001.66 1002.23 1002.94 1003.74 1004.62 1005.52 1006.49 1007.30 1007.88 1008.46 1009.18 1009.72 1010.09 1010.61 1011.06 1011.44 1011.77 1012.25 1012.91 1013.71 1014.07
1002.13 1001.54 1000.85 1000.04 999.44 998.54 998.11 997.83 997.71 997.53 998.76 999.73 1000.45 1001.05 1001.74 1002.92 1003.84 1004.66 1005.36 1006.28 1007.04 1007.71 1008.34 1008.65 1009.06 1009.47 1009.94 1010.34 1010.73 1011.36 1012.02 1012.85 1013.00
1003.30 1002.07 1000.68 999.91 998.37 997.10 996.39 996.56 997.06 996.71 997.84 998.25 999.25 1000.84 1001.62 1002.44 1003.30 1004.10 1004.75 1005.56 1006.31 1006.90 1007.46 1007.75 1008.33 1008.57 1008.94 1009.39 1009.83 1010.36 1011.00 1011.73 1012.03
1003.99 1002.87 1001.60 1000.39 998.49 996.84 995.53 995.44 996.03 996.26 997.32 998.42 999.62 1000.42 1000.99 1001.78 1002.74 1003.58 1004.18 1004.92 1005.62 1006.23 1006.76 1007.27 1007.58 1008.07 1008.21 1008.30 1008.92 1009.50 1010.02 1010.58 1011.00
1004.88 1004.08 1003.20 1001.83 1000.31 998.98 996.98 996.16 996.06 996.91 997.69 998.44 999.29 999.92 1000.58 1001.32 1002.19 1003.18 1003.37 1004.33 1005.04 1005.63 1006.11 1006.21 1006.82 1006.92 1007.12 1007.10 1007.21 1008.06 1008.74 1009.50 1010.14
1005.78 1004.96 1004.12 1003.65 1002.50 1001.16 999.99 998.88 997.91 997.58 998.04 998.58 999.06 999.54 1000.45 1001.08 1001.80 1002.65 1003.22 1003.91 1004.58 1004.84 1004.93 1005.47 1005.52 1005.72 1005.76 1005.94 1006.21 1006.44 1006.89 1008.35 1009.52
1006.41 1005.93 1005.24 1004.99 1004.55 1003.43 1002.11 1000.99 1000.35 999.76 998.90 998.74 998.96 999.37 1000.04 1000.44 1001.00 1002.02 1002.72 1003.28 1003.95 1004.22 1004.16 1004.67 1005.08 1005.13 1005.15 1005.04 1005.26 1005.59 1006.14 1006.64 1007.13
1007.06 1006.70 1006.08 1005.60 1005.17 1004.26 1003.72 1002.98 1002.26 1001.39 1000.36 999.13 998.68 999.24 999.36 999.74 1000.06 1001.12 1001.77 1002.56 1004.03 1004.97 1005.36 1005.78 1005.78 1005.50 1005.66 1004.67 1005.41 1005.79 1006.14 1006.89 1007.46
1007.65 1007.24 1006.59 1006.46 1005.91 1005.68 1005.16 1004.56 1003.84 1003.13 1002.10 1000.67 999.94 999.64 999.52 1000.23 1000.36 1000.63 1001.40 1002.34 1002.80 1003.78 1005.04 1005.30 1006.00 1006.57 1006.16 1006.08 1006.73 1006.26 1006.55 1007.18 1008.06
Wind_Speed
21 22 22 24 26 25 25 26 26 25 23 22 22 21 19 16 17 13 13 13 10 10 9 8 9 11 10 11 9 8 7 7 7
19 21 22 25 25 25 25 26 26 25 22 23 23 23 18 17 17 16 14 13 13 11 9 9 9 11 12 11 11 10 8 8 7
17 18 20 21 23 25 24 25 25 26 25 24 23 22 20 18 19 17 15 13 14 13 12 12 10 12 13 13 12 11 10 8 8
19 17 18 20 22 24 25 23 24 26 25 25 24 23 20 19 19 19 17 16 15 15 14 13 13 12 13 13 12 12 11 10 8
22 20 19 20 21 22 23 25 25 26 26 25 24 21 20 21 19 18 19 17 17 15 15 15 14 14 13 14 14 13 13 13 11
16 18 18 17 17 20 22 24 24 25 26 25 24 22 23 22 22 21 19 18 18 16 16 16 16 15 14 14 14 13 13 13 12
7 8 13 14 15 17 20 22 21 22 25 25 24 24 23 21 22 21 20 18 17 18 16 16 16 16 16 15 15 15 14 14 13
3 5 10 15 17 17 17 19 20 21 23 22 23 22 24 22 20 19 19 18 17 17 17 16 17 16 16 16 15 13 15 15 15
7 4 4 7 12 15 18 20 20 21 21 22 22 21 22 20 19 19 19 18 18 17 17 16 16 17 17 17 14 14 14 14 15
7 6 7 8 9 11 15 19 19 22 22 20 21 20 20 20 19 19 19 19 18 18 18 16 17 17 17 17 17 13 15 16 16
8 8 9 9 11 13 14 15 18 19 20 20 20 19 19 19 20 20 18 18 18 18 16 17 16 17 16 16 15 13 16 15 17
10 12 12 12 12 14 13 15 17 18 20 21 21 21 22 21 20 20 19 19 18 17 16 16 16 16 17 17 16 16 17 15 16
13 12 12 13 14 16 17 17 18 20 22 21 22 23 22 19 19 19 19 18 17 16 15 17 14 16 17 18 17 15 17 18 14
11 12 14 13 15 13 16 15 20 19 21 24 21 19 20 18 18 18 17 16 15 16 16 14 15 15 15 16 17 16 18 20 16
14 15 17 16 14 9 7 12 18 16 18 13 16 17 18 17 16 16 16 16 15 15 14 14 13 14 13 13 15 15 15 20 23
15 17 16 16 12 13 9 6 9 15 13 14 15 16 16 16 17 16 13 15 15 13 14 13 14 13 13 12 12 13 20 19 21
13 14 15 16 16 14 13 14 7 8 12 14 15 15 15 15 15 15 14 12 12 12 13 13 13 13 12 12 12 11 11 12 11
11 12 13 12 13 14 13 12 13 11 4 13 14 13 14 13 12 13 12 11 8 11 11 8 12 11 11 11 11 11 10 9 10
9 10 11 12 13 15 14 13 14 14 14 3 13 13 11 10 10 11 10 11 8 10 8 9 8 4 4 10 4 8 7 7 7
9 8 11 11 14 14 13 12 13 13 13 11 10 9 11 10 9 8 8 6 6 6 5 7 4 8 3 4 8 5 4 1 3
Wind_Direction
201 200 200 200 199 199 201 201 199 199 194 197 195 196 201 201 205 211 215 208 224 215 225 215 213 202 217 216 209 210 199 212 219
196 202 203 202 198 199 199 200 199 198 196 196 195 197 196 200 202 216 214 222 210 224 222 233 223 218 220 219 216 212 202 232 206
212 204 203 202 199 200 199 200 199 198 199 199 199 199 200 202 205 207 217 216 223 222 223 221 235 218 226 225 220 214 210 217 207
209 201 200 203 200 202 200 197 196 198 199 198 202 199 199 204 205 208 211 218 219 220 223 213 218 216 220 218 215 211 213 230 240
221 218 203 205 202 198 197 198 196 196 196 198 200 197 197 199 203 206 207 213 216 215 216 215 215 212 215 219 220 217 215 219 223
213 221 219 213 203 196 200 197 200 198 197 198 194 197 198 201 203 204 209 209 213 210 213 216 217 213 213 218 221 219 218 223 225
257 217 230 213 206 199 199 199 198 201 200 198 196 192 199 200 200 202 205 208 207 211 209 213 215 215 215 219 222 222 224 222 227
275 254 230 216 212 205 200 197 197 197 204 200 200 190 197 199 200 199 201 201 203 207 209 212 214 214 216 219 222 220 219 225 227
267 251 233 247 227 220 206 207 199 195 201 201 199 194 198 195 195 196 198 198 200 201 206 209 211 216 215 218 224 214 206 221 227
273 267 265 264 255 243 221 212 204 203 200 196 197 197 196 195 192 198 197 195 196 199 203 205 209 214 216 218 222 211 202 202 231
309 300 286 267 260 251 245 233 211 203 197 199 194 194 194 196 191 195 197 198 196 197 202 205 206 210 215 219 221 202 201 197 224
319 306 292 279 268 260 253 241 229 194 201 196 196 195 194 194 193 191 194 199 199 198 201 204 208 212 214 218 225 198 199 192 225
335 323 312 297 284 262 239 226 232 202 198 195 199 197 198 192 191 193 193 194 197 196 201 208 211 215 216 219 226 200 195 193 225
358 341 332 321 284 265 246 223 218 204 194 202 198 194 194 192 192 195 193 190 193 194 199 206 209 212 219 223 220 227 190 190 220
11 14 6 348 341 306 231 196 203 190 194 186 190 194 195 186 188 196 191 192 192 197 199 206 206 215 221 221 227 219 193 195 208
19 21 18 1 3 11 358 183 183 181 185 182 186 189 189 184 185 196 185 189 192 195 198 208 209 211 219 224 217 221 207 194 201
8 8 16 14 12 14 23 27 33 196 180 186 184 181 186 182 184 189 200 188 196 205 201 205 216 213 216 218 219 219 215 203 201
4 4 9 8 11 15 17 31 32 17 207 182 183 178 184 179 182 182 186 205 201 208 216 220 212 219 217 215 218 219 216 226 203
6 4 10 8 11 14 9 19 30 17 2 101 162 168 167 168 171 164 186 182 168 75 61 12 6 27 1 230 119 93 161 197 247
8 18 19 19 16 12 358 18 18 13 8 23 81 93 118 121 127 150 153 135 151 191 136 106 4 312 259 277 334 63 122 184 88